Torna al catalogo

TITAN 3C TRANSTAGE DEB

AttivoLEO
NORAD 1959·DEBRIS·🇺🇸 United States

Lanciato Oct 15, 1965 da Cape Canaveral Space Force Station

Loading…

Prossimi Passaggi (prossime 24 ore)

TLE

AggiornatoSource: Space-Track

Epoca: Sep 14, 2026, 03:41 UTC

1 01959U 65082GU  26257.15377032  .00000491  00000-0  90531-4 0  9991
2 01959  31.7892 205.4544 0062107 325.2932  34.3664 14.59101142226769

Traccia TITAN 3C TRANSTAGE DEB in tempo reale con AllMySat

Download on the App Store